INTELSAT 33E (IS-33E) (41748 NORAD) Tracking and Keplerian Element Data

This shows tracking and keplerian element data for the satellite.

Feedback or suggestion? Click here.




ElementValue
Catalog41748
NameINTELSAT 33E (IS-33E)
Epoch Orbit2883
Epoch Day159.85674326
Epoch Year2024
RAAN38.3824
Inclination0.0137
Eccentricity0.0001939
Argument of Perigee14.8427
Mean Anonmoly211.9255
Mean Motion1.00271553
Decay Rate4.9E-07
L11 41748U 16053B 24159.85674326 .00000049 00000+0 00000+0 0 9992
L22 41748 0.0137 38.3824 0001939 14.8427 211.9255 1.00271553 28833



Live tracking and technical data element details for INTELSAT 33E (IS-33E) (NORAD 41748). INTELSAT 33E (IS-33E) can be tracked NOW for your location showing map with azimuth and elevation plus other details from your city location.







IsCatalogInMostPopularTable: catalog: 41748, numindb: 669
Update: records affected: 1



GetName: 41748 INTELSAT 33E (IS-33E)

Hit Count: updated at: Mon, 17 Jun 2024 23:27:24 GMT